SL-12 DEB, 41697

Orbit data source: Space-Track

SL-12 DEB, 41697 is space debris in HEO originally from a launch on Mon, 01 Mar 2010 UTC launched from the Tyuratam Missile And Space Complex (TTMTR). Debris objects in space refer to the collection of defunct objects orbiting the Earth. Examples of debris include non-operational satellites, rocket bodies, and fragments generated from explosions, collisions, or faulty payload assembly.

Loading next visibility...
Identifier
41697, 2010-007P
Orbit
HEO
Country
Flag of CISCIS
Related business
Manufacturer
RKKE
Mission
Spacecraft
Bus & Motor
Unknown
Mass
Unknown
Launch date (UTC)
2010-03-01 (16 years ago)
Launch vehicle
Unknown
Launch site
Tyuratam Missile And Space Complex (TTMTR)
Object type
Payload
Rocket body
Debris
Shape & HBR
Unknown
Radar Cross Section
Small (<0.1 m²)

Expand to show TLE details & history
Last TLE update: 1 year ago

TLE from 1 year ago
0 SL-12 DEB
1 41697U 10007P   24256.79819583 -.00020108  00000-0 -67108+0 0  9998
2 41697  65.4025 189.0905 5500021 315.9869  11.4576  4.16119980152626
Epoch: 2024-09-12T19:09Z
TLE epoch observation values (Epoch: 2024-09-12T19:09:24.119Z)
Latitude
0.00004°
Longitude
-90.54936°
Altitude
1,785.892 km
Speed
8.559 km/s
True Right ascension
12h 36m 19s
True Declination
0° 00' 00"
Sunlit
Object was in daylight at epoch
Visualization orbit readout
Latitude
Unknown
Longitude
Unknown
Altitude
Unknown
Speed
Unknown
Apparent Right ascension
Unknown
Apparent Declination
Unknown
Sunlit
N/A
Visualization observer readout
Local Sidereal Time
07:50:10
Azimuth
Unknown
Elevation
Unknown
Doppler factor
Unknown
Orbital elements
Apogee altitude
18,927.995 km
Perigee altitude
968.76 km
Semi-major axis
16,326.515 km
Eccentricity
0.55
Inclination
65.4025°
RAAN
189.0905°
Arg. of periapsis
315.9869°
True anomaly
43.98119°
Mean anomaly
11.4576°
Eccentric anomaly
24.55153°
Mean motion
1.04041 °/min
Orbital period
346.02 mins
BSTAR
-0.67108
Loading maneuver chart data...
Computing Atmospheric mass density...
Loading historical data...
Loading historical data...
Loading historical data...
Loading historical data...
Loading historical data...
Loading historical data...
Loading historical data...

Documentation

Showing up to 5 results
|